Regional Weather Roundup
Issued by NWS

Home | Current Version | Previous Version | Graphics & Text | Print | Product List | Glossary Off
Versions: 1 2 3 4 5 6 7 8 9 10 11 12 13 14 15 16 17 18 19 20 21 22 23 24 25 26 27 28 29 30 31 32 33 34 35 36 37 38 39 40 41 42 43 44 45 46 47 48 49 50

193
ASUS43 KLSX 291410
RWRMO

WEATHER SUMMARY FOR MISSOURI
NATIONAL WEATHER SERVICE SPRINGFIELD MO
900 AM CDT FRI JUL 29 2016

NOTE: "FAIR" INDICATES FEW OR NO CLOUDS BELOW 12,000 FEET WITH NO
       SIGNIFICANT WEATHER AND/OR OBSTRUCTIONS TO VISIBILITY.
       CURRENT SKY AND/OR WEATHER CONDITIONS ARE NOT AVAILABLE FOR
       CHILLICOTHE AND FARMINGTON.

MOZ001>031-035>038-043-044-053-054-291500-
...NORTHERN AND WESTERN MISSOURI...

CITY           SKY/WX    TMP DP  RH WIND       PRES   REMARKS
KANSAS CTY INT PTSUNNY   73  63  70 E6        30.03R
KANSAS C DTWN  CLOUDY    75  64  68 NE6       30.01R
LEE`S SUMMIT   CLOUDY    73  65  75 NE7       30.02R
ST JOSEPH      MOSUNNY   73  66  78 N8        30.03S
CHILLICOTHE      N/A     72  65  78 VRB3      30.02F
KIRKSVILLE     PTSUNNY   70  64  81 N7        30.01S

$$
MOZ066>068-077>081-088>096-101>105-291500-
...SOUTHWEST MISSOURI...

CITY           SKY/WX    TMP DP  RH WIND       PRES   REMARKS
SPRINGFIELD    MOSUNNY   78  72  81 SE3       29.99S
JOPLIN         PTSUNNY   75  68  78 VRB5      30.00S
BRANSON        MOSUNNY   79  73  83 CALM      30.02R

$$
MOZ032>034-039>042-045>050-055>058-069>072-291500-
...CENTRAL MISSOURI...

CITY           SKY/WX    TMP DP  RH WIND       PRES   REMARKS
COLUMBIA       PTSUNNY   72  69  90 CALM      29.99F
JEFFERSON CITY MOSUNNY   74  69  85 CALM      29.98S
ROLLA          MOSUNNY   73  68  84 SE5       29.98F
SEDALIA        PTSUNNY   75  69  81 NE6       30.02R
WHITEMAN AFB   PTSUNNY   74  70  87 NE6       30.00R
OSAGE BEACH    CLOUDY    73  70  90 E3        30.00S

$$
MOZ051-052-059>065-291500-
...EAST CENTRAL MISSOURI...

CITY           SKY/WX    TMP DP  RH WIND       PRES   REMARKS
ST LOUIS INTL  PTSUNNY   79  67  66 NW6       29.97R
SPIRIT OF STL  CLOUDY    76  70  82 NW5       29.96R
ST CHARLES     CLOUDY    75  69  81 CALM      29.96R

$$
MOZ072>076-082>087-097>100-106>115-291500-
...SOUTH CENTRAL AND SOUTHEAST MISSOURI...

CITY           SKY/WX    TMP DP  RH WIND       PRES   REMARKS
CAPE GIRARDEAU CLOUDY    73  71  93 SW3       29.96R
FARMINGTON     SUNNY     77  71  82 NE6       29.99S
POPLAR BLUFF   SUNNY     77  71  82 CALM      29.96R
WEST PLAINS    SUNNY     79  70  74 CALM      30.02S

$$




USA.gov is the U.S. government's official web portal to all federal, state and local government web resources and services.